星链-33724 (STARLINK-33724)

导读

STARLINK-33724是美国SpaceX公司星链(Starlink)星座中的一颗通信卫星,于2025年4月14日发射入轨。作为星链星座组网的组成部分,该卫星运行于近地轨道,采用平板设计、氪工质霍尔推进器,搭载Ku/Ka波段通信载荷与自主避撞系统,旨在为全球提供低延迟高速宽带互联网服务,助力星链实现全球覆盖的卫星互联网组网目标。

Basic Information
目录编号:
63574
目录名称:
STARLINK-33724
国际标识:
2025-076F
轨道中心:
EARTH
卫星名称:
星链-33724
卫星全名:
星链-33724 (STARLINK-33724)
卫星状态:
已陨落 最后检测时间 2025-06-01
发射日期:
2025-04-14 UTC
国别 :
美国 (US)
星等 :
--
Orbit Information
数据来源 国际轨道数据
星历时间: 2025-06-01T16:09:51+0800
轨道信息已过期377天
半长轴: 6582.865km
偏心率: 0.0007447
轨道倾角: 42.991°
近地点辐角 231.357°
升交点赤经 103.807°
平近点角 261.749°
近地点: 199.827km
远地点: 209.633km
周期: 88.589分钟
每日圈数: 16.254753
Detailed Information
固有亮度:
5
最大亮度:
2.5
卫星平台:
Starlink V1.0
覆盖范围:
全球
运营商:
太空探索技术公司
运营商所在国:
美国
制造商(研发单位):
太空探索技术公司
制造商所在国:
美国
使用方式:
暂无
Satellite Introduction
Starlink 计划是 SpaceX 推出的全球卫星互联网项目,通过发射低轨道卫星,为全球尤其是偏远地区提供高速、低延迟的互联网服务。自 2019 年起,Starlink 已部署数千颗卫星,旨在缩小全球数字鸿沟,推动互联网普及。该项目还为军事、航空等行业提供通信支持,带来广泛经济效益。